TIANQI 35

导读 | 星芒AI

TIANQI 35 是中国天基气象观测系统的重要组成部分,主要用于气象监测和空间环境探测。该卫星搭载多种先进传感器,可实现对地球大气层的高精度观测,提供云层分布、温度、湿度等关键气象数据,提升天气预报的准确性。同时,TIANQI 35 还具备空间辐射环境监测能力,为航天器安全运行提供支持。其成功发射进一步完善了中国气象卫星体系,增强了对极端天气和气候变化的预警能力。

基本信息
目录编号:
62367
目录名称:
TIANQI 35
国际标识:
2024-245C
轨道中心:
EARTH
卫星名称:
TIANQI 35
卫星全名:
TIANQI 35
卫星状态:
在轨 (已飞行361 天)
发射日期:
2024-12-19 UTC
国别 :
中国 (CN)
星等 :
--
轨道信息
数据来源 国际轨道数据 AOE轨道数据
星历时间 2025-12-15T05:44:36+0800
21小时前
查看轨道信息
2025-12-15T00:00:00+0800
1天前
查看轨道信息
半长轴 7275.014km 7275.014km
偏心率 0.0011644 0.0011599
轨道倾角 44.986° 44.984°
近地点辐角 215.238° 214.940°
升交点赤经 61.610° 62.676°
平近点角 144.768° 18.605°
近地点 888.407km 888.44km
远地点 905.351km 905.318km
周期 102.923分钟 102.923分钟
每日圈数 13.991105 13.991106
详细信息
使用方式:
暂无
2D轨道图
3D轨道图
轨道高度分析图
轨道倾角分析图
轨道综合分析图
查看轨道综合分析图